| time (UTC) | temp F | wind direction | speed MPH | gust MPH | rain 1hr in | rain 24hr in | rain mn in | humidity % | barometer mb |
| 20260503173029 | 85 | 360 | 5.0 | 10.0 | 0.00 | 0.00 | 0.00 | 26 | 1012.3 |
| 20260503171517 | 84 | 360 | 3.0 | 9.0 | 0.00 | 0.00 | 0.00 | 29 | 1012.4 |
| 20260503150106 | 73 | 360 | 1.0 | 3.0 | 0.00 | 0.00 | 0.00 | 41 | 1012.5 |
| 20260503081514 | 74 | 360 | 1.0 | 3.0 | 0.00 | 0.00 | 0.00 | 27 | 1011.8 |
| 20260503071604 | 72 | 360 | 0.0 | 3.0 | 0.00 | 0.00 | 0.00 | 31 | 1012.0 |
| 20260503070104 | 74 | 360 | 1.0 | 3.0 | 0.00 | 0.00 | 0.00 | 30 | 1011.9 |
| 20260503054545 | 76 | 360 | 0.0 | 2.0 | 0.00 | 0.00 | 0.00 | 24 | 1011.7 |
| 20260503053044 | 77 | 360 | 0.0 | 2.0 | 0.00 | 0.00 | 0.00 | 27 | 1011.5 |
| 20260503051544 | 79 | 360 | 0.0 | 2.0 | 0.00 | 0.00 | 0.00 | 22 | 1011.5 |
| 20260503050042 | 79 | 360 | 0.0 | 2.0 | 0.00 | 0.00 | 0.00 | 23 | 1011.4 |
| 20260503044544 | 79 | 360 | 0.0 | 0.0 | 0.00 | 0.00 | 0.00 | 22 | 1011.4 |
| 20260503043041 | 81 | 360 | 0.0 | 0.0 | 0.00 | 0.00 | 0.00 | 19 | 1011.2 |
| 20260503041540 | 81 | 360 | 0.0 | 2.0 | 0.00 | 0.00 | 0.00 | 19 | 1011.0 |
| 20260503040040 | 82 | 360 | 1.0 | 3.0 | 0.00 | 0.00 | 0.00 | 18 | 1010.7 |
| 20260503034539 | 83 | 360 | 2.0 | 5.0 | 0.00 | 0.00 | 0.00 | 18 | 1010.5 |
| 20260503033041 | 84 | 360 | 1.0 | 3.0 | 0.00 | 0.00 | 0.00 | 18 | 1010.3 |
| 20260503031541 | 84 | 360 | 1.0 | 3.0 | 0.00 | 0.00 | 0.00 | 18 | 1010.2 |
| 20260503030056 | 85 | 360 | 2.0 | 4.0 | 0.00 | 0.00 | 0.00 | 17 | 1010.1 |
| 20260503024541 | 86 | 360 | 2.0 | 4.0 | 0.00 | 0.00 | 0.00 | 17 | 1010.1 |
| 20260503023037 | 87 | 360 | 3.0 | 5.0 | 0.00 | 0.00 | 0.00 | 16 | 1009.9 |
| 20260503021540 | 88 | 360 | 3.0 | 6.0 | 0.00 | 0.00 | 0.00 | 16 | 1010.0 |
| 20260503020037 | 89 | 360 | 3.0 | 6.0 | 0.00 | 0.00 | 0.00 | 16 | 1009.9 |
| 20260503014543 | 90 | 48 | 3.0 | 8.0 | 0.00 | 0.00 | 0.00 | 15 | 1010.0 |
| 20260503013034 | 90 | 19 | 3.0 | 5.0 | 0.00 | 0.00 | 0.00 | 15 | 1010.2 |
| 20260503011535 | 90 | 45 | 1.0 | 4.0 | 0.00 | 0.00 | 0.00 | 15 | 1010.3 |
| 20260503010032 | 91 | 51 | 4.0 | 8.0 | 0.00 | 0.00 | 0.00 | 14 | 1010.5 |
| 20260503004531 | 90 | 67 | 1.0 | 7.0 | 0.00 | 0.00 | 0.00 | 13 | 1010.6 |
| 20260503003030 | 91 | 42 | 2.0 | 8.0 | 0.00 | 0.00 | 0.00 | 13 | 1010.5 |
| 20260503001529 | 91 | 79 | 3.0 | 6.0 | 0.00 | 0.00 | 0.00 | 13 | 1010.7 |
| 20260503000033 | 91 | 101 | 6.0 | 10.0 | 0.00 | 0.00 | 0.00 | 14 | 1010.7 |
| 20260502234528 | 91 | 188 | 0.0 | 4.0 | 0.00 | 0.00 | 0.00 | 14 | 1010.6 |
| 20260502233028 | 91 | 113 | 1.0 | 9.0 | 0.00 | 0.00 | 0.00 | 14 | 1010.7 |
| 20260502231527 | 92 | 228 | 2.0 | 5.0 | 0.00 | 0.00 | 0.00 | 13 | 1010.7 |
| 20260502230025 | 91 | 315 | 1.0 | 8.0 | 0.00 | 0.00 | 0.00 | 13 | 1010.9 |
| 20260502224523 | 91 | 300 | 3.0 | 5.0 | 0.00 | 0.00 | 0.00 | 13 | 1011.0 |
| 20260502223021 | 91 | 176 | 1.0 | 9.0 | 0.00 | 0.00 | 0.00 | 13 | 1011.3 |
| 20260502221520 | 92 | 239 | 6.0 | 9.0 | 0.00 | 0.00 | 0.00 | 11 | 1011.6 |
| 20260502220021 | 92 | 181 | 4.0 | 10.0 | 0.00 | 0.00 | 0.00 | 11 | 1011.8 |
| 20260502214517 | 93 | 219 | 8.0 | 14.0 | 0.00 | 0.00 | 0.00 | 10 | 1012.0 |
| 20260502213034 | 92 | 158 | 2.0 | 10.0 | 0.00 | 0.00 | 0.00 | 10 | 1012.3 |
| 20260502211515 | 91 | 155 | 7.0 | 11.0 | 0.00 | 0.00 | 0.00 | 11 | 1012.5 |
| 20260502210015 | 92 | 82 | 5.0 | 13.0 | 0.00 | 0.00 | 0.00 | 15 | 1012.6 |
| 20260502204510 | 91 | 118 | 5.0 | 10.0 | 0.00 | 0.00 | 0.00 | 17 | 1012.8 |
| 20260502203009 | 91 | 264 | 3.0 | 7.0 | 0.00 | 0.00 | 0.00 | 17 | 1012.9 |
| 20260502201514 | 90 | 169 | 2.0 | 8.0 | 0.00 | 0.00 | 0.00 | 18 | 1013.2 |
| 20260502200006 | 90 | 360 | 8.0 | 16.0 | 0.00 | 0.00 | 0.00 | 19 | 1013.5 |
| 20260502194503 | 89 | 360 | 4.0 | 10.0 | 0.00 | 0.00 | 0.00 | 19 | 1013.6 |
| 20260502193003 | 89 | 360 | 9.0 | 14.0 | 0.00 | 0.00 | 0.00 | 20 | 1013.8 |
| 20260502191602 | 89 | 360 | 7.0 | 12.0 | 0.00 | 0.00 | 0.00 | 19 | 1014.1 |
| 20260502190058 | 88 | 360 | 7.0 | 13.0 | 0.00 | 0.00 | 0.00 | 21 | 1014.3 |
| 20260502184558 | 88 | 360 | 7.0 | 14.0 | 0.00 | 0.00 | 0.00 | 22 | 1014.5 |
| 20260502183052 | 86 | 360 | 6.0 | 12.0 | 0.00 | 0.00 | 0.00 | 23 | 1014.8 |
| 20260502181606 | 87 | 360 | 5.0 | 14.0 | 0.00 | 0.00 | 0.00 | 23 | 1015.0 |